Temperature
6 6 6 6 6 5 5 5 5 5 5 5 5 5 5 5 5 5 4 4 4 4 4 4 4 3 3 3 3 3 2 2 2 2 3 3 3 3 3 3 3 3 3
5 5 5 5 5 5 5 5 5 5 5 5 5 5 5 5 4 4 4 4 4 4 3 3 3 3 3 3 2 2 2 2 2 2 2 2 2 2 2 2 3 3 3
5 5 5 5 5 5 5 5 5 5 5 4 4 4 4 4 4 4 4 4 3 3 3 3 3 2 2 2 2 2 2 2 2 2 2 2 2 2 2 2 2 2 2
4 4 4 4 4 4 4 4 4 4 4 4 4 4 4 4 4 4 3 3 3 3 3 2 2 2 2 2 2 2 1 1 1 1 1 1 1 1 1 1 1 1 1
4 4 4 4 4 4 4 4 4 4 4 4 4 3 3 3 3 3 3 3 3 2 2 2 2 2 2 1 1 1 1 1 1 1 1 1 1 1 1 1 1 1 1
4 4 4 4 4 4 4 4 4 3 3 3 3 3 3 3 3 3 3 2 2 2 2 2 2 1 1 1 1 1 1 0 0 0 0 0 0 0 -0 -0 -0 -0 -0
3 3 3 3 3 3 3 3 3 3 3 3 3 3 3 3 3 3 2 2 2 1 1 1 1 1 1 1 1 0 0 0 -0 -0 -0 -0 -0 -0 -1 -1 -1 -1 -1
3 3 3 3 3 3 3 3 2 2 2 2 2 2 2 2 2 2 2 1 1 1 1 1 1 0 0 0 0 0 0 -0 -0 -0 -0 -0 -1 -1 -1 -1 -1 -1 -1
2 2 2 2 2 2 2 2 2 2 2 2 2 2 1 1 1 1 1 1 1 1 0 0 0 0 -0 -0 -0 -0 -0 -0 -0 -0 -1 -1 -1 -1 -1 -1 -1 -2 -2
2 2 2 2 1 1 1 1 1 1 1 1 1 1 1 1 1 1 1 0 -0 -0 -0 -0 -0 -0 -0 -1 -1 -1 -1 -1 -1 -1 -1 -1 -1 -1 -2 -2 -2 -2 -3
1 1 1 1 1 1 1 1 1 1 1 1 1 0 0 0 0 0 0 -0 -1 -1 -1 -1 -1 -1 -1 -1 -1 -1 -1 -1 -1 -1 -2 -2 -2 -2 -2 -2 -2 -3 -3
1 1 1 1 1 1 1 0 0 0 0 -0 -0 -0 -0 -0 -0 -0 -0 -1 -1 -1 -1 -1 -1 -1 -1 -1 -1 -1 -2 -2 -2 -2 -2 -2 -2 -2 -3 -3 -3 -3 -3
0 0 0 0 0 0 0 -0 -0 -0 -1 -1 -1 -1 -1 -1 -1 -1 -1 -1 -1 -2 -2 -2 -2 -2 -2 -2 -2 -2 -2 -2 -2 -2 -3 -3 -3 -3 -3 -3 -3 -3 -3
0 0 -0 -0 -0 -0 -1 -1 -1 -1 -1 -1 -1 -1 -1 -2 -1 -1 -2 -2 -2 -2 -2 -2 -2 -2 -2 -2 -2 -3 -3 -3 -3 -3 -3 -3 -3 -3 -3 -3 -3 -3 -3
-0 -0 -0 -0 -1 -1 -1 -1 -1 -1 -1 -1 -2 -2 -2 -2 -2 -2 -2 -2 -2 -2 -2 -3 -3 -3 -3 -3 -3 -3 -3 -3 -3 -3 -3 -4 -4 -4 -4 -4 -4 -4 -4
-0 -1 -1 -1 -1 -1 -1 -1 -2 -2 -2 -2 -2 -2 -2 -2 -2 -2 -2 -2 -3 -3 -3 -3 -3 -3 -3 -3 -3 -3 -3 -3 -4 -4 -4 -4 -4 -4 -4 -4 -4 -4 -4
-1 -1 -1 -1 -1 -2 -2 -2 -2 -2 -2 -2 -2 -2 -2 -3 -3 -3 -3 -3 -3 -3 -3 -3 -3 -3 -3 -3 -4 -4 -4 -4 -4 -4 -4 -4 -5 -5 -4 -4 -4 -4 -4
-1 -2 -2 -2 -2 -2 -2 -2 -2 -2 -2 -2 -2 -3 -3 -3 -3 -3 -3 -3 -3 -3 -4 -3 -3 -3 -4 -4 -4 -4 -4 -4 -4 -4 -4 -5 -5 -5 -5 -5 -5 -5 -5
-2 -2 -2 -2 -2 -3 -3 -3 -3 -3 -3 -3 -3 -3 -3 -3 -3 -3 -4 -4 -4 -4 -4 -4 -4 -4 -4 -4 -4 -4 -4 -4 -5 -5 -5 -5 -5 -5 -5 -5 -5 -5 -5
-3 -3 -3 -3 -3 -3 -3 -3 -3 -3 -3 -4 -4 -3 -4 -4 -4 -4 -4 -4 -4 -4 -4 -4 -4 -4 -4 -4 -4 -4 -5 -5 -5 -5 -5 -5 -5 -5 -5 -5 -5 -5 -5
-3 -3 -3 -3 -3 -3 -4 -4 -4 -4 -4 -4 -4 -4 -4 -4 -4 -4 -4 -4 -4 -4 -4 -4 -4 -4 -4 -4 -5 -5 -5 -5 -5 -5 -5 -5 -5 -5 -5 -5 -5 -6 -6
-4 -4 -4 -4 -4 -4 -4 -4 -4 -4 -4 -4 -4 -4 -5 -5 -5 -5 -5 -5 -5 -5 -5 -5 -5 -5 -5 -5 -5 -5 -5 -5 -5 -5 -5 -5 -5 -5 -6 -6 -6 -6 -6
-4 -4 -4 -4 -4 -4 -5 -5 -5 -5 -5 -5 -5 -5 -5 -5 -5 -5 -5 -5 -5 -5 -5 -5 -5 -5 -5 -5 -5 -5 -5 -5 -5 -5 -5 -5 -5 -6 -6 -6 -6 -6 -6
-4 -5 -5 -5 -5 -5 -5 -5 -5 -5 -5 -5 -5 -5 -5 -5 -5 -5 -5 -5 -5 -5 -5 -5 -5 -5 -5 -5 -5 -5 -5 -5 -5 -5 -5 -5 -6 -6 -6 -6 -6 -6 -6
-5 -5 -5 -5 -5 -5 -5 -5 -5 -6 -6 -6 -6 -6 -6 -6 -6 -6 -6 -6 -6 -6 -6 -6 -6 -6 -5 -5 -5 -5 -5 -5 -5 -5 -5 -6 -6 -6 -6 -6 -6 -6 -6
-5 -5 -5 -6 -6 -6 -6 -6 -6 -6 -6 -6 -6 -6 -6 -6 -6 -6 -6 -6 -6 -6 -6 -6 -6 -6 -6 -6 -5 -5 -5 -5 -5 -5 -6 -6 -6 -6 -6 -6 -6 -6 -6
Wind_Speed
6 7 7 7 7 7 6 6 6 5 5 5 5 5 5 5 5 5 5 5 5 4 4 5 5 4 4 3 3 4 4 5 7 6 5 5 5 5 5 6 7 6 6
5 6 6 6 6 6 6 6 6 6 5 5 5 5 5 5 6 6 5 5 5 5 5 5 5 4 5 4 4 4 4 5 6 7 6 5 6 6 5 6 5 5 6
5 6 6 6 6 6 6 6 6 6 5 5 5 5 5 6 6 6 5 5 5 5 5 5 4 4 5 4 4 4 4 4 5 6 6 5 5 5 5 5 5 5 6
5 6 6 6 6 6 5 5 5 5 5 5 5 5 5 5 6 5 5 5 5 5 5 5 5 5 5 5 4 5 4 4 5 5 5 5 5 5 4 4 5 5 5
5 6 6 5 5 5 5 5 4 5 5 5 5 4 4 4 5 5 5 5 5 4 4 5 5 5 6 5 4 5 5 4 4 5 5 5 4 4 4 4 5 6 6
5 5 5 5 5 5 5 4 4 4 4 4 5 4 4 4 5 6 5 5 5 5 5 4 4 5 6 7 7 7 6 6 5 5 5 5 6 5 5 5 5 5 5
5 5 5 5 5 5 5 5 5 5 5 5 4 4 4 4 5 6 6 4 4 4 5 4 4 4 6 5 6 6 7 7 8 7 7 7 7 6 6 6 6 6 6
5 5 5 5 5 5 5 5 5 5 5 5 4 4 4 4 5 5 6 4 4 4 5 5 5 5 5 5 4 5 5 6 6 7 7 7 7 6 6 6 7 7 7
6 6 5 6 6 6 6 6 5 5 5 5 4 4 4 4 5 5 5 4 4 5 5 5 5 5 4 5 5 5 5 5 5 6 7 7 7 7 6 5 5 5 5
6 6 6 6 6 7 7 6 5 5 5 5 5 5 5 4 5 5 5 3 4 4 4 4 5 6 6 6 5 5 6 5 4 4 5 6 6 6 7 6 5 5 4
5 5 5 6 6 7 6 5 5 5 5 5 5 4 5 5 5 6 6 4 4 4 4 4 4 6 6 6 7 6 6 5 4 4 4 4 4 4 4 4 5 5 5
5 5 5 5 5 5 6 5 5 6 5 5 4 4 4 4 5 6 6 6 5 5 5 4 4 5 6 6 6 5 4 4 3 3 4 4 3 4 4 4 5 6 6
5 5 5 5 5 5 6 6 5 5 5 5 4 4 4 3 4 6 7 7 7 5 4 5 5 5 5 5 4 4 4 3 3 3 4 4 4 4 4 3 4 4 5
5 5 5 5 5 5 5 5 5 5 5 5 5 4 4 4 4 4 4 4 5 4 4 4 4 4 3 3 3 3 3 3 3 4 4 3 3 3 3 3 4 3 4
5 5 5 5 5 5 5 5 6 5 6 6 5 5 5 5 5 5 4 4 4 3 3 2 2 2 2 2 3 2 2 2 3 3 3 3 3 3 3 3 3 3 4
5 5 4 4 4 4 4 3 4 5 5 6 6 5 5 6 5 6 6 4 4 4 3 3 3 3 3 3 3 3 3 3 3 3 3 3 3 3 3 3 3 3 4
5 5 4 4 4 4 4 4 3 3 4 6 6 7 6 5 6 6 6 5 5 5 3 3 3 3 3 3 3 3 3 3 3 3 3 3 3 3 3 3 3 3 4
5 5 5 4 4 4 4 4 4 4 3 3 4 6 6 6 6 5 5 4 4 4 3 4 4 3 3 3 3 3 3 3 3 3 3 3 3 3 4 3 3 3 4
4 4 4 4 4 4 4 4 4 4 4 3 2 3 4 4 4 5 5 3 4 4 3 3 3 3 3 3 3 3 3 3 3 3 3 3 3 3 3 4 4 4 4
3 4 4 3 3 3 4 4 4 4 3 3 3 3 3 3 3 3 3 3 3 4 4 3 3 3 3 3 3 3 3 3 3 3 3 3 3 3 4 4 4 4 4
3 4 4 3 3 3 3 4 4 4 4 3 3 3 4 3 3 4 4 3 3 3 3 3 3 3 3 3 3 3 4 3 3 3 3 3 3 3 3 4 4 4 3
2 3 3 3 3 3 3 3 3 3 4 4 3 3 4 3 3 3 3 3 3 3 3 3 3 3 3 3 3 4 4 4 3 3 3 3 3 3 3 4 3 3 3
2 3 3 2 3 3 3 3 3 3 3 3 3 2 3 3 3 2 2 2 2 2 2 2 2 2 2 3 3 4 4 4 4 4 4 3 3 3 3 4 4 3 3
2 3 3 2 2 3 3 3 3 3 3 3 3 3 3 2 2 2 2 2 2 2 2 2 2 3 3 3 3 4 5 5 5 4 5 4 4 4 3 3 4 4 3
2 2 3 3 3 2 2 2 3 3 3 3 3 2 2 2 2 2 2 2 2 2 2 2 2 3 4 4 4 4 5 6 5 5 4 4 4 4 4 3 3 3 3
2 2 2 2 2 2 2 2 3 3 3 3 3 3 2 2 2 2 2 1 1 1 2 2 3 3 4 4 4 4 5 5 5 5 4 3 3 3 3 3 3 3 3
Wind_Direction
192 194 194 193 193 194 195 197 196 192 189 194 198 201 200 198 196 200 205 205 209 214 218 225 232 233 235 235 238 243 247 252 262 276 285 292 293 299 307 305 302 296 293
192 191 191 191 189 192 196 195 192 191 189 192 194 200 202 201 200 201 203 206 209 214 219 224 231 233 235 238 241 246 250 253 260 273 281 286 288 297 304 307 308 303 300
187 187 187 188 189 194 195 192 189 188 186 186 193 199 204 202 201 203 204 208 213 217 220 223 229 231 238 241 244 250 256 261 263 268 277 284 285 293 304 304 304 304 303
187 187 189 191 192 194 192 192 189 189 188 189 196 202 204 203 201 200 203 208 215 221 227 230 232 234 241 243 246 251 254 259 260 264 271 278 281 293 298 298 301 304 304
190 192 194 192 189 188 187 188 187 189 193 192 196 199 200 201 202 201 203 208 213 222 230 235 237 244 250 249 248 249 249 253 256 259 265 273 278 290 291 293 294 301 300
194 199 195 188 183 185 186 183 184 189 191 191 196 199 203 208 202 206 209 210 215 222 232 240 244 244 246 248 252 253 250 248 250 255 261 265 273 278 281 283 289 297 293
198 198 194 188 186 187 184 182 188 192 190 192 197 201 209 207 204 209 211 215 221 229 236 242 246 247 247 250 250 249 250 255 257 255 257 261 269 273 275 276 278 284 283
203 200 197 192 192 190 188 191 196 195 195 198 199 205 211 211 210 211 208 216 228 236 239 243 245 247 245 249 251 252 256 255 252 255 259 264 270 274 271 273 278 283 285
207 204 201 198 197 196 198 201 200 198 199 200 201 206 212 216 209 212 214 218 228 239 242 244 244 248 244 247 250 254 261 264 257 256 264 266 271 274 275 273 272 278 282
215 211 207 204 202 203 204 204 203 202 203 197 202 207 211 217 212 214 221 222 231 240 245 244 243 249 245 244 248 248 253 262 264 265 261 260 264 263 261 259 262 268 278
219 213 208 208 208 206 204 203 199 201 201 201 205 212 216 220 214 213 219 226 231 239 246 251 249 244 249 249 255 253 253 262 262 261 262 263 264 261 260 259 257 257 263
215 211 207 206 207 205 201 199 197 195 197 203 207 215 219 219 222 219 224 236 245 242 246 253 254 248 252 258 259 253 253 259 252 252 257 261 265 266 267 269 268 263 262
212 211 208 203 203 203 201 197 196 196 200 205 209 216 220 220 223 227 232 234 239 249 253 256 259 255 257 256 245 235 239 243 238 246 252 263 271 274 278 280 280 276 275
211 212 208 200 201 201 201 200 199 200 203 206 212 219 222 223 222 222 230 233 233 244 251 240 241 244 257 253 234 230 240 240 237 243 253 266 274 274 275 281 285 286 285
209 208 205 203 200 200 203 207 209 213 213 213 217 220 222 229 231 233 236 237 233 232 233 242 234 237 247 243 237 239 241 239 241 242 247 258 265 269 273 279 282 284 279
204 205 202 198 196 198 199 207 216 222 223 231 234 233 236 246 238 227 231 232 228 210 212 224 229 234 238 237 235 240 239 238 239 240 243 247 254 262 271 278 278 275 277
204 201 197 196 197 198 199 201 208 215 220 227 229 230 234 234 230 225 222 215 208 197 217 226 230 235 241 238 236 238 243 244 239 234 239 244 248 255 262 268 271 275 280
204 200 198 199 200 201 203 207 209 211 216 228 232 227 227 224 222 218 210 204 207 208 228 230 234 238 239 237 236 238 240 241 239 237 237 242 245 251 259 262 264 273 281
202 200 199 199 200 203 205 207 210 214 217 221 226 222 219 216 210 202 193 209 214 223 230 234 236 238 241 240 236 236 234 237 240 239 239 241 244 249 255 261 265 272 275
205 199 195 194 195 199 204 205 207 208 210 215 216 217 208 211 217 212 214 220 223 229 232 237 239 240 239 239 232 232 234 236 236 239 239 241 245 247 253 258 261 264 269
200 194 189 192 198 202 204 206 207 207 212 218 222 220 214 217 221 221 222 227 228 232 233 235 240 237 235 234 230 230 235 236 235 237 240 245 248 251 253 254 258 261 264
197 195 195 197 199 201 206 207 209 212 216 221 225 218 214 220 220 222 226 232 236 239 237 236 240 244 240 233 232 230 233 237 237 235 239 244 245 247 252 255 255 257 260
193 189 189 192 193 193 198 206 209 215 220 220 216 211 212 217 220 224 230 236 238 239 237 239 247 254 252 244 239 233 233 236 237 234 233 238 241 244 248 253 257 262 262
180 182 187 190 189 191 196 205 212 215 217 215 212 214 214 212 218 228 235 237 240 243 243 244 251 255 260 261 251 244 239 238 237 232 230 231 236 241 245 251 256 255 255
179 184 187 189 189 190 194 204 210 210 211 212 212 214 212 210 216 229 236 238 239 246 255 257 257 261 260 265 264 255 245 238 235 225 219 227 230 234 239 246 249 247 241
182 187 192 192 192 192 196 205 211 210 212 213 211 210 208 207 215 228 235 234 240 254 263 265 269 271 274 270 265 259 248 235 227 221 214 222 223 228 231 235 235 229 230
Height
1454 1456 1458 1460 1462 1464 1466 1467 1469 1470 1472 1473 1474 1476 1477 1477 1478 1479 1480 1481 1481 1482 1482 1483 1483 1483 1483 1483 1482 1482 1482 1481 1480 1478 1477 1476 1475 1474 1472 1471 1469 1467 1466
1450 1452 1454 1457 1459 1460 1462 1464 1465 1467 1468 1470 1471 1472 1473 1474 1475 1476 1476 1477 1477 1478 1478 1479 1479 1479 1479 1479 1479 1478 1478 1477 1477 1474 1474 1473 1472 1471 1469 1467 1466 1464 1462
1447 1449 1451 1453 1455 1457 1459 1460 1462 1463 1464 1466 1467 1468 1469 1470 1471 1472 1472 1473 1474 1474 1474 1475 1475 1475 1475 1475 1475 1474 1474 1473 1473 1472 1470 1469 1468 1467 1466 1464 1463 1461 1459
1445 1446 1448 1450 1452 1454 1455 1457 1458 1460 1461 1462 1464 1465 1466 1467 1467 1468 1468 1469 1470 1470 1471 1471 1471 1471 1471 1471 1471 1470 1470 1470 1469 1468 1467 1466 1465 1464 1463 1461 1459 1458 1456
1442 1443 1445 1447 1449 1451 1452 1453 1455 1456 1458 1459 1460 1461 1462 1463 1463 1464 1465 1465 1466 1466 1467 1467 1467 1467 1467 1467 1467 1467 1467 1466 1465 1464 1463 1463 1462 1461 1459 1458 1456 1454 1452
1438 1440 1442 1444 1445 1447 1449 1450 1451 1453 1454 1455 1456 1457 1458 1459 1460 1461 1461 1461 1462 1462 1463 1463 1463 1464 1463 1463 1463 1463 1463 1462 1462 1461 1460 1459 1458 1458 1457 1455 1453 1451 1449
1435 1437 1438 1440 1441 1443 1445 1446 1447 1449 1450 1451 1452 1453 1454 1455 1456 1457 1457 1458 1458 1458 1459 1459 1459 1459 1459 1459 1458 1458 1458 1458 1458 1458 1456 1455 1455 1454 1453 1451 1450 1448 1446
1432 1433 1435 1436 1438 1440 1441 1443 1444 1445 1446 1447 1448 1450 1450 1451 1452 1453 1454 1454 1454 1455 1455 1455 1455 1455 1455 1455 1455 1454 1454 1454 1454 1453 1453 1452 1452 1451 1449 1448 1447 1445 1443
1428 1430 1431 1433 1434 1436 1437 1439 1440 1441 1442 1443 1445 1445 1446 1447 1449 1449 1450 1450 1450 1451 1451 1451 1451 1451 1451 1451 1451 1450 1450 1450 1450 1449 1448 1448 1447 1446 1446 1445 1443 1441 1438
1425 1426 1428 1429 1431 1432 1433 1435 1436 1437 1438 1440 1441 1442 1443 1443 1444 1445 1446 1446 1446 1446 1447 1447 1447 1447 1447 1447 1447 1446 1446 1445 1445 1445 1444 1443 1443 1442 1441 1440 1439 1437 1435
1422 1423 1424 1426 1427 1428 1430 1431 1432 1433 1435 1436 1437 1438 1439 1440 1440 1441 1442 1442 1442 1442 1442 1442 1442 1443 1443 1443 1443 1442 1442 1442 1441 1440 1440 1439 1438 1438 1437 1436 1435 1434 1432
1418 1419 1420 1422 1423 1424 1425 1426 1428 1429 1430 1431 1432 1433 1434 1435 1436 1437 1438 1438 1439 1439 1438 1438 1438 1438 1438 1438 1438 1438 1438 1438 1437 1436 1436 1435 1434 1433 1432 1432 1431 1430 1429
1415 1415 1417 1418 1419 1420 1421 1422 1423 1425 1426 1427 1428 1429 1430 1431 1432 1433 1434 1434 1434 1435 1434 1434 1434 1434 1434 1434 1434 1434 1434 1434 1433 1432 1432 1431 1430 1429 1429 1428 1427 1426 1425
1411 1412 1413 1414 1415 1416 1417 1418 1419 1420 1422 1423 1424 1425 1426 1427 1427 1428 1429 1430 1430 1430 1430 1431 1431 1430 1430 1430 1430 1430 1430 1430 1429 1429 1428 1427 1426 1426 1425 1424 1423 1422 1421
1407 1408 1409 1410 1411 1412 1413 1415 1416 1417 1418 1419 1420 1421 1422 1422 1423 1424 1425 1425 1426 1426 1427 1427 1426 1426 1426 1426 1426 1426 1426 1426 1425 1425 1424 1424 1423 1422 1421 1421 1420 1419 1418
1403 1404 1405 1406 1408 1409 1410 1411 1412 1414 1415 1416 1417 1418 1418 1419 1420 1420 1421 1422 1422 1423 1423 1423 1422 1422 1422 1423 1423 1423 1422 1422 1422 1422 1421 1420 1419 1419 1418 1417 1417 1416 1414
1400 1401 1402 1403 1404 1405 1406 1407 1408 1410 1411 1412 1413 1414 1414 1415 1416 1417 1417 1418 1418 1419 1419 1419 1419 1419 1419 1419 1419 1419 1419 1419 1419 1418 1418 1417 1417 1416 1415 1414 1413 1413 1411
1397 1398 1399 1400 1401 1402 1403 1404 1405 1406 1407 1407 1409 1410 1411 1411 1412 1413 1414 1414 1414 1414 1414 1415 1415 1415 1415 1416 1416 1416 1415 1415 1415 1415 1414 1414 1414 1413 1412 1411 1411 1410 1409
1394 1395 1396 1397 1398 1399 1400 1401 1402 1403 1403 1404 1405 1406 1407 1408 1409 1409 1410 1410 1410 1410 1411 1411 1411 1411 1412 1412 1412 1412 1412 1412 1412 1411 1411 1411 1410 1410 1409 1408 1408 1407 1406
1391 1392 1393 1394 1395 1396 1397 1397 1398 1399 1400 1401 1401 1402 1403 1404 1404 1405 1406 1406 1406 1407 1407 1408 1408 1408 1408 1409 1409 1408 1408 1408 1408 1408 1408 1408 1407 1407 1406 1405 1405 1404 1403
1388 1389 1390 1391 1392 1393 1393 1394 1395 1396 1397 1398 1398 1399 1400 1400 1401 1402 1402 1403 1403 1403 1404 1404 1405 1405 1405 1405 1405 1405 1405 1405 1405 1405 1405 1404 1404 1404 1403 1403 1402 1401 1400
1385 1386 1387 1387 1389 1390 1390 1391 1392 1393 1394 1394 1395 1396 1396 1397 1397 1398 1399 1399 1400 1401 1401 1401 1401 1401 1401 1402 1402 1401 1401 1401 1401 1402 1401 1401 1401 1401 1400 1399 1399 1398 1397
1382 1383 1384 1385 1386 1387 1388 1389 1389 1390 1391 1391 1392 1392 1393 1393 1394 1395 1396 1396 1397 1397 1398 1398 1398 1398 1398 1398 1398 1398 1398 1398 1398 1398 1398 1398 1398 1398 1397 1397 1396 1395 1395
1380 1381 1381 1382 1383 1384 1385 1386 1386 1387 1388 1388 1389 1389 1390 1391 1392 1392 1393 1393 1394 1394 1395 1395 1395 1395 1395 1395 1395 1395 1395 1395 1395 1395 1395 1395 1395 1395 1394 1394 1393 1393 1392
1378 1379 1379 1380 1380 1381 1382 1383 1384 1384 1385 1385 1386 1387 1387 1388 1389 1389 1390 1390 1391 1391 1391 1391 1391 1391 1391 1391 1392 1392 1392 1392 1392 1392 1392 1392 1392 1392 1391 1391 1391 1390 1390
1376 1376 1377 1377 1378 1379 1380 1380 1381 1382 1382 1383 1383 1384 1385 1385 1386 1387 1387 1387 1388 1388 1388 1388 1388 1388 1388 1388 1388 1388 1388 1389 1389 1389 1389 1389 1389 1389 1389 1388 1388 1388 1387